HEBOWX Weather Reports


Display with metric or nautical units.
time (UTC)temp
F
wind
direction
speed
MPH
gust
MPH
rain 1hr
in
rain 24hr
in
rain mn
in
humidity
%
barometer
mb
20180120131032 34 0 0.0 0.0 0.04 1.27 0.87 100 1016.4
20180120130532 34 0 0.0 0.0 0.04 1.27 0.87 100 1016.4
20180120130032 34 0 0.0 0.0 0.04 1.27 0.87 100 1013.2
20180120125532 35 0 0.0 0.0 0.04 1.27 0.87 100 1013.1
20180120125032 34 0 0.0 0.0 0.04 1.28 0.86 100 1016.2
20180120124532 34 0 0.0 0.0 0.04 1.28 0.86 100 1016.3
20180120124031 34 0 0.0 0.0 0.04 1.28 0.86 100 1011.2
20180120123532 34 0 0.0 0.0 0.04 1.28 0.85 100 1016.2
20180120123032 34 0 0.0 0.0 0.05 1.28 0.85 100 1016.2
20180120122532 34 0 0.0 0.0 0.05 1.28 0.85 100 1011.8
20180120122032 34 0 0.0 0.0 0.04 1.28 0.84 100 1016.2
20180120121531 34 0 0.0 0.0 0.04 1.28 0.84 100 1016.0
20180120121031 34 0 0.0 0.0 0.04 1.28 0.84 100 1016.0
20180120120532 34 0 0.0 0.0 0.04 1.28 0.83 100 1013.3
20180120120032 34 0 0.0 0.0 0.03 1.28 0.83 100 1016.0
20180120115532 34 0 0.0 0.0 0.03 1.28 0.83 100 1011.8
20180120115031 34 0 0.0 0.0 0.03 1.27 0.82 100 1016.0
20180120114533 34 0 0.0 0.0 0.03 1.27 0.82 100 1015.8
20180120114031 34 0 0.0 0.0 0.03 1.27 0.82 100 1015.9
20180120113532 34 0 0.0 0.0 0.03 1.27 0.81 100 1013.0
20180120113031 34 0 0.0 0.0 0.03 1.27 0.81 100 1015.9
20180120112531 34 0 0.0 0.0 0.03 1.27 0.81 100 1013.1
20180120112035 34 0 0.0 0.0 0.04 1.27 0.80 100 1013.8
20180120111531 34 0 0.0 0.0 0.04 1.27 0.80 100 1015.9
20180120111033 34 0 0.0 0.0 0.05 1.27 0.80 100 1013.5
20180120110532 34 0 0.0 0.0 0.05 1.27 0.80 100 1015.9
20180120110031 34 0 0.0 0.0 0.08 1.27 0.79 100 1013.9
20180120105531 34 0 0.0 0.0 0.08 1.27 0.79 100 1013.2
20180120105032 34 0 0.0 0.0 0.10 1.24 0.79 100 1015.8
20180120104531 34 0 0.0 0.0 0.10 1.24 0.79 100 1015.9
20180120104031 34 0 0.0 0.0 0.10 1.24 0.79 100 1015.8
20180120103534 34 0 0.0 0.0 0.10 1.24 0.78 100 1014.2
20180120103032 34 0 0.0 0.0 0.09 1.24 0.78 100 1015.7
20180120102531 34 0 0.0 0.0 0.09 1.24 0.77 100 1015.8
20180120102031 34 0 0.0 0.0 0.09 1.24 0.77 100 1013.0
20180120101531 35 0 0.0 0.0 0.09 1.24 0.77 100 1015.7
20180120101031 34 0 0.0 0.0 0.08 1.24 0.76 100 1015.6
20180120100531 34 0 0.0 0.0 0.08 1.24 0.75 100 1008.9
20180120100031 34 0 0.0 0.0 0.06 1.24 0.74 100 1015.6
20180120095531 34 0 0.0 0.0 0.06 1.24 0.73 100 1015.5
20180120095032 34 0 0.0 0.0 0.06 1.19 0.71 100 1010.7
20180120094531 34 0 0.0 0.0 0.06 1.19 0.70 100 1013.0
20180120094031 34 0 0.0 0.0 0.05 1.19 0.69 100 1013.1
20180120093532 34 0 0.0 0.0 0.05 1.19 0.69 100 1015.3
20180120092532 34 0 0.0 0.0 0.06 1.19 0.68 100 1015.3
20180120092031 34 0 0.0 0.0 0.06 1.19 0.68 100 1013.8
20180120091532 34 0 0.0 0.0 0.06 1.19 0.67 100 1012.6
20180120091031 34 0 0.0 0.0 0.06 1.19 0.67 100 1011.0
20180120090531 34 0 0.0 0.0 0.06 1.19 0.67 100 1006.7
20180120090031 34 0 0.0 0.0 0.07 1.19 0.66 100 1010.5
20180120085531 34 0 0.0 16.0 0.07 1.19 0.65 100 1012.9
20180120085031 34 0 0.0 16.0 0.07 1.15 0.65 100 1010.7
20180120084531 34 232 0.0 16.0 0.07 1.15 0.64 100 1012.8
20180120084032 34 236 4.0 16.0 0.09 1.15 0.63 100 1015.3
20180120083531 34 249 3.0 16.0 0.09 1.15 0.63 100 1015.3
20180120083031 34 287 5.0 15.0 0.10 1.15 0.63 100 1008.4
20180120082531 34 245 8.0 16.0 0.10 1.15 0.63 100 1015.4
20180120082031 34 231 9.0 16.0 0.12 1.15 0.62 100 1013.1
20180120081531 34 246 10.0 16.0 0.12 1.15 0.62 100 1015.4
20180120081031 34 260 9.0 16.0 0.11 1.15 0.61 100 1015.5
20180120080531 34 247 11.0 16.0 0.11 1.15 0.60 100 1015.5
20180120080031 34 240 11.0 16.0 0.09 1.15 0.59 100 1013.2
20180120075531 34 214 10.0 16.0 0.09 1.15 0.59 100 1010.9
20180120075033 34 236 1.0 16.0 0.07 1.08 0.58 100 1015.5
20180120074531 34 250 9.0 19.0 0.07 1.08 0.57 100 1015.4
20180120074031 34 260 8.0 19.0 0.05 1.08 0.56 100 1012.9
20180120073531 34 266 9.0 19.0 0.05 1.08 0.55 100 1013.6
20180120073031 34 243 12.0 17.0 0.03 1.08 0.54 100 1015.4
20180120072531 34 225 12.0 24.0 0.03 1.08 0.53 100 1013.1
20180120072032 34 267 9.0 24.0 0.01 1.08 0.52 100 1015.4
20180120071531 34 246 7.0 24.0 0.01 1.08 0.50 100 1015.4
20180120071031 34 236 18.0 22.0 0.02 1.08 0.49 100 1015.3
20180120070531 34 238 16.0 17.0 0.02 1.08 0.49 100 1012.8
20180120070031 34 238 9.0 17.0 0.02 1.08 0.49 100 1012.3
20180120065531 34 243 9.0 17.0 0.02 1.08 0.49 100 1014.9
20180120065032 34 273 11.0 23.0 0.04 1.11 0.49 100 1013.1
20180120064531 34 245 10.0 23.0 0.04 1.11 0.49 100 1012.6
20180120064031 34 250 13.0 23.0 0.05 1.11 0.49 100 1015.1
20180120063531 34 224 13.0 17.0 0.05 1.11 0.49 100 1012.7
20180120063031 34 212 12.0 17.0 0.07 1.11 0.49 100 1007.4
20180120062531 35 247 11.0 17.0 0.07 1.11 0.49 100 1015.0
20180120062032 35 277 10.0 13.0 0.08 1.11 0.49 100 1012.8
20180120061531 35 226 8.0 12.0 0.08 1.11 0.48 100 1014.9
20180120061031 34 243 9.0 23.0 0.08 1.11 0.48 100 1010.3
20180120060531 34 267 6.0 23.0 0.08 1.11 0.48 100 1012.9
20180120060031 35 204 14.0 23.0 0.09 1.11 0.47 100 1012.1
20180120055531 35 235 14.0 15.0 0.09 1.11 0.47 100 1014.6
20180120055033 35 229 12.0 15.0 0.09 1.05 0.47 100 1014.6
20180120054531 35 221 10.0 18.0 0.09 1.05 0.46 100 1012.7
20180120054031 35 252 12.0 18.0 0.09 1.05 0.45 100 1012.9
20180120053531 35 212 13.0 18.0 0.09 1.05 0.44 100 1011.3
20180120053031 35 221 10.0 14.0 0.08 1.05 0.44 100 1014.4
20180120052531 35 222 9.0 17.0 0.08 1.05 0.43 100 1012.3
20180120052033 35 249 10.0 17.0 0.07 1.05 0.42 100 1014.5
20180120051531 35 257 6.0 17.0 0.07 1.05 0.41 100 1014.4
20180120051032 35 246 8.0 15.0 0.08 1.05 0.40 100 1012.2
20180120050531 35 266 11.0 23.0 0.08 1.05 0.40 100 1009.6
20180120050031 35 250 11.0 23.0 0.08 1.05 0.39 100 1014.4
20180120045531 35 240 15.0 23.0 0.08 1.05 0.39 100 1011.9
20180120045031 35 253 11.0 20.0 0.06 0.97 0.38 100 1010.2
20180120044531 35 252 10.0 15.0 0.06 0.97 0.37 100 1014.2
20180120044031 34 254 10.0 15.0 0.05 0.97 0.36 100 1011.3
20180120043531 34 257 8.0 15.0 0.05 0.97 0.35 100 1009.0
20180120043031 35 268 7.0 17.0 0.05 0.97 0.35 100 1011.8
20180120042531 34 252 6.0 17.0 0.05 0.97 0.35 100 1014.0
20180120042033 35 252 9.0 17.0 0.06 0.97 0.34 100 1009.2
20180120041531 34 274 9.0 22.0 0.06 0.97 0.33 100 1006.4
20180120041031 35 270 8.0 22.0 0.05 0.97 0.33 100 1013.8
20180120040531 35 266 12.0 22.0 0.05 0.97 0.32 100 1013.8
20180120040031 35 249 14.0 21.0 0.05 0.97 0.31 100 1005.9
20180120035531 35 242 9.0 18.0 0.05 0.97 0.31 100 1011.7
20180120035031 35 252 10.0 18.0 0.07 0.93 0.30 100 1009.6
20180120034531 35 256 6.0 15.0 0.07 0.93 0.30 100 1011.7
20180120034030 35 239 7.0 15.0 0.10 0.93 0.30 100 1009.4
20180120033532 35 218 8.0 22.0 0.10 0.93 0.30 100 1010.5
20180120033031 35 228 15.0 22.0 0.11 0.93 0.30 100 1008.3
20180120032530 35 239 10.0 22.0 0.11 0.93 0.30 100 1010.9
20180120032031 35 243 14.0 21.0 0.12 0.93 0.29 100 1008.5
20180120031531 35 249 15.0 20.0 0.12 0.93 0.28 100 1010.7
20180120031030 35 228 15.0 20.0 0.12 0.93 0.27 100 1010.8
20180120030531 35 235 14.0 20.0 0.12 0.93 0.27 100 1013.2
20180120030031 35 231 15.0 19.0 0.14 0.93 0.26 100 1007.7
20180120025531 35 250 10.0 26.0 0.14 0.93 0.25 100 1013.2
20180120025030 35 228 8.0 26.0 0.15 0.82 0.24 100 1012.2
20180120024531 35 207 9.0 26.0 0.15 0.82 0.23 100 1010.3
20180120024031 36 217 19.0 19.0 0.12 0.82 0.22 100 1006.2
20180120023530 35 242 10.0 19.0 0.12 0.82 0.21 100 1010.9
20180120023030 35 231 13.0 20.0 0.11 0.82 0.20 100 1013.0
20180120022030 35 236 10.0 20.0 0.08 0.82 0.18 100 1013.1
20180120021530 35 218 14.0 16.0 0.08 0.82 0.17 100 1010.3
20180120021031 35 231 11.0 20.0 0.07 0.82 0.15 100 1005.6
20180120020531 35 238 9.0 20.0 0.07 0.82 0.15 100 1013.1
20180120020030 35 217 13.0 20.0 0.04 0.82 0.14 100 1002.7
20180120015530 35 217 15.0 26.0 0.04 0.82 0.13 100 1010.5
20180120015032 35 219 17.0 26.0 0.02 0.79 0.11 100 1010.7
20180120014530 35 207 19.0 26.0 0.02 0.79 0.10 100 1010.8
20180120014032 35 189 18.0 23.0 0.03 0.79 0.08 100 1010.5
20180120013531 35 200 9.0 23.0 0.03 0.79 0.08 100 1013.0
20180120013031 35 208 13.0 23.0 0.03 0.79 0.08 100 1005.3
20180120012530 35 169 13.0 23.0 0.03 0.79 0.07 100 1008.6
20180120012030 35 221 13.0 23.0 0.03 0.79 0.07 100 1011.0
20180120011530 35 218 8.0 21.0 0.03 0.79 0.07 100 1010.3
20180120011030 35 191 15.0 25.0 0.05 0.79 0.07 100 1010.4
20180120010531 35 219 9.0 25.0 0.05 0.79 0.07 100 1007.3
20180120010030 35 218 14.0 25.0 0.06 0.79 0.07 100 1008.0
20180120005530 35 189 17.0 23.0 0.06 0.79 0.07 100 1008.1
20180120005031 35 205 12.0 19.0 0.06 0.74 0.07 100 1008.2
20180120004530 35 224 12.0 19.0 0.06 0.74 0.06 100 1007.3
20180120004031 35 198 15.0 25.0 0.07 0.74 0.06 100 1009.8
20180120003530 35 191 13.0 25.0 0.07 0.74 0.05 100 1004.7
20180120003030 35 203 17.0 25.0 0.06 0.74 0.05 100 1012.9
20180120002532 36 177 15.0 23.0 0.06 0.74 0.05 100 1011.0
20180120002030 35 200 10.0 23.0 0.07 0.74 0.04 100 1012.9
20180120001532 35 204 12.0 23.0 0.07 0.74 0.04 100 1012.9
20180120001031 35 212 18.0 26.0 0.05 0.74 0.03 100 1012.8
20180120000530 35 198 17.0 26.0 0.05 0.74 0.03 100 1009.8
20180120000031 35 173 14.0 26.0 0.05 0.74 0.02 100 1010.5
20180119235530 35 186 11.0 25.0 0.05 0.74 0.01 100 1012.7
20180119235030 35 194 16.0 25.0 0.04 0.74 0.01 100 1012.7
20180119234533 35 180 18.0 26.0 0.04 0.74 0.74 100 1009.9
20180119234031 35 207 14.0 26.0 0.02 0.73 0.73 100 1010.3
20180119233530 35 198 15.0 26.0 0.02 0.72 0.72 100 1009.9
20180119233030 36 219 16.0 23.0 0.02 0.71 0.71 100 1005.6
20180119232530 35 184 17.0 23.0 0.02 0.71 0.71 100 1012.8
20180119232032 35 203 10.0 23.0 0.02 0.71 0.71 100 1012.7
20180119231531 35 190 13.0 23.0 0.02 0.71 0.71 100 1010.0
20180119231030 35 207 18.0 27.0 0.02 0.70 0.70 100 1007.0
20180119230530 35 208 13.0 27.0 0.02 0.70 0.70 100 1009.8
20180119230030 35 208 15.0 27.0 0.01 0.70 0.70 100 1009.9
20180119225530 35 198 19.0 19.0 0.01 0.69 0.69 100 1010.3
20180119225032 35 198 13.0 26.0 0.02 0.70 0.69 100 1008.3
20180119224530 36 182 17.0 26.0 0.02 0.70 0.69 100 1012.7
20180119224030 36 221 20.0 26.0 0.02 0.70 0.69 100 1010.0
20180119223530 36 0 19.0 21.0 0.02 0.70 0.69 100 1010.0
20180119223030 36 0 0.0 0.0 0.03 0.70 0.69 100 1007.6
20180119222530 36 0 0.0 0.0 0.03 0.70 0.69 100 1009.9
20180119222031 36 0 0.0 0.0 0.03 0.70 0.69 100 1009.8
20180119221530 35 0 0.0 0.0 0.03 0.70 0.68 100 1010.0
20180119221030 36 0 0.0 0.0 0.03 0.70 0.68 100 1009.8
20180119220530 36 0 0.0 0.0 0.03 0.70 0.68 100 1010.2
20180119220030 36 0 0.0 0.0 0.03 0.70 0.68 100 1009.9
20180119215530 36 0 0.0 0.0 0.03 0.70 0.68 100 1009.9
20180119215031 36 0 0.0 0.0 0.03 0.72 0.68 100 1011.0
20180119214530 35 0 0.0 0.0 0.03 0.72 0.68 100 1009.8
20180119214030 35 0 0.0 0.0 0.04 0.72 0.67 100 1010.0
20180119213530 35 0 0.0 0.0 0.04 0.72 0.67 100 1006.7
20180119213031 35 0 0.0 0.0 0.03 0.72 0.67 100 1007.2
20180119212532 35 0 0.0 0.0 0.03 0.72 0.66 100 1012.6
20180119212031 35 0 0.0 0.0 0.03 0.72 0.66 100 1012.6
20180119211530 35 0 0.0 0.0 0.03 0.72 0.66 100 1012.6
20180119211030 35 0 0.0 0.0 0.04 0.72 0.65 100 1012.7
20180119210531 35 0 0.0 0.0 0.04 0.72 0.65 100 1012.7
20180119210030 35 0 0.0 0.0 0.05 0.72 0.65 100 1012.7
20180119205530 35 0 0.0 0.0 0.05 0.72 0.65 100 1012.8
20180119205031 35 0 0.0 0.0 0.04 0.68 0.65 100 1012.6
20180119204530 35 0 0.0 0.0 0.04 0.68 0.64 100 1005.2
20180119204030 35 0 0.0 0.0 0.05 0.68 0.64 100 1009.6
20180119203531 36 0 0.0 0.0 0.05 0.68 0.64 100 1004.3
20180119203030 35 0 0.0 0.0 0.05 0.68 0.63 100 1007.9
20180119202531 35 0 0.0 0.0 0.05 0.68 0.63 100 1008.1
20180119202032 35 0 0.0 0.0 0.04 0.68 0.63 100 1007.9
20180119201530 36 0 0.0 0.0 0.04 0.68 0.62 100 1009.6
20180119201030 35 0 0.0 0.0 0.03 0.68 0.62 100 1012.6
20180119200531 36 0 0.0 0.0 0.03 0.68 0.61 100 1009.8
20180119200030 36 0 0.0 0.0 0.02 0.68 0.61 100 1006.1
20180119195530 35 0 0.0 0.0 0.02 0.68 0.60 100 1010.1
20180119195030 35 0 0.0 0.0 0.03 0.66 0.60 100 1008.4
20180119194530 35 0 0.0 0.0 0.03 0.66 0.60 100 1008.1
20180119194030 35 0 0.0 0.0 0.02 0.66 0.60 100 1012.6
20180119193530 35 0 0.0 0.0 0.02 0.66 0.59 100 1009.8
20180119193030 35 0 0.0 0.0 0.02 0.66 0.58 100 1011.2
20180119192530 35 0 0.0 0.0 0.02 0.66 0.58 100 1012.6
20180119192031 35 0 0.0 0.0 0.03 0.66 0.58 100 1012.7
20180119191530 35 0 0.0 0.0 0.03 0.66 0.58 100 1012.5
20180119191031 35 0 0.0 0.0 0.04 0.66 0.58 100 1008.2
20180119190530 35 0 0.0 0.0 0.04 0.66 0.58 100 1012.6
20180119190030 35 0 0.0 0.0 0.05 0.66 0.58 100 1011.2
20180119185530 35 0 0.0 0.0 0.05 0.66 0.58 100 1010.3
20180119185031 35 0 0.0 0.0 0.04 0.64 0.58 100 1010.4
20180119184530 35 0 0.0 0.0 0.04 0.64 0.57 100 1010.9
20180119184030 35 0 0.0 0.0 0.04 0.64 0.57 100 1009.0
20180119183530 35 0 0.0 0.0 0.04 0.64 0.57 100 1010.0
20180119183030 35 0 0.0 0.0 0.05 0.64 0.56 100 1012.1
20180119182530 35 0 0.0 0.0 0.05 0.64 0.56 100 1009.9
20180119182030 35 0 0.0 0.0 0.04 0.64 0.56 100 1009.6
20180119181531 35 0 0.0 0.0 0.04 0.64 0.55 100 1012.1
20180119181030 35 0 0.0 0.0 0.04 0.64 0.55 100 1009.4
20180119180030 34 0 0.0 0.0 0.04 0.64 0.54 100 1006.5
20180119175530 34 0 0.0 0.0 0.04 0.64 0.54 100 1010.5
20180119175031 34 0 0.0 0.0 0.05 0.61 0.53 100 1010.0
20180119174530 34 0 0.0 0.0 0.05 0.61 0.53 100 1011.8
20180119174029 34 0 0.0 0.0 0.04 0.61 0.53 100 1007.1
20180119173530 34 0 0.0 0.0 0.04 0.61 0.52 100 1011.7
20180119173033 34 0 0.0 0.0 0.04 0.61 0.52 100 1008.9
20180119172030 34 0 0.0 0.0 0.04 0.61 0.51 100 1008.9
20180119171529 34 0 0.0 0.0 0.04 0.61 0.51 100 1009.5
20180119170529 34 0 0.0 0.0 0.04 0.61 0.50 100 1008.5
20180119170029 34 0 0.0 0.0 0.04 0.61 0.50 100 1008.3
20180119165529 34 0 0.0 0.0 0.04 0.61 0.49 100 1008.9
20180119165032 34 0 0.0 0.0 0.04 0.57 0.49 100 1008.4
20180119164529 34 0 0.0 0.0 0.04 0.57 0.49 100 1008.5
20180119164030 34 0 0.0 0.0 0.05 0.57 0.48 100 1010.9
20180119163530 34 0 0.0 0.0 0.05 0.57 0.48 100 1006.4
20180119163030 34 0 0.0 0.0 0.06 0.57 0.48 100 1005.3
20180119162530 34 0 0.0 0.0 0.06 0.57 0.47 100 1008.3
20180119162029 34 0 0.0 0.0 0.07 0.57 0.47 100 1010.4
20180119161529 34 0 0.0 0.0 0.07 0.57 0.47 100 1005.3
20180119161029 34 0 0.0 0.0 0.06 0.57 0.47 100 1005.5
20180119160531 34 0 0.0 0.0 0.06 0.57 0.46 100 1007.6
20180119160030 34 0 0.0 0.0 0.06 0.57 0.46 100 1007.3
20180119155529 34 0 0.0 0.0 0.06 0.57 0.45 100 1002.3
20180119155031 34 0 0.0 0.0 0.06 0.51 0.45 100 1010.1
20180119154529 34 0 0.0 0.0 0.06 0.51 0.44 100 1007.6
20180119154030 34 0 0.0 0.0 0.06 0.51 0.44 100 1007.5
20180119153529 34 0 0.0 0.0 0.06 0.51 0.43 100 1010.1
20180119153029 34 0 0.0 0.0 0.05 0.51 0.43 100 1000.0
20180119152530 34 0 0.0 0.0 0.05 0.51 0.42 100 1007.5
20180119152031 34 0 0.0 0.0 0.04 0.51 0.41 100 1009.9
20180119151529 34 0 0.0 0.0 0.04 0.51 0.40 100 1007.1
20180119151031 34 0 0.0 0.0 0.04 0.51 0.40 100 1009.9
20180119150529 34 0 0.0 0.0 0.04 0.51 0.40 100 1007.6
20180119150029 34 0 0.0 0.0 0.03 0.51 0.40 100 1004.3
20180119145529 34 0 0.0 0.0 0.03 0.51 0.39 100 1009.6
20180119145030 34 0 0.0 0.0 0.02 0.48 0.39 100 1009.6
20180119144529 34 0 0.0 0.0 0.02 0.48 0.38 100 1009.8
20180119144029 34 0 0.0 0.0 0.02 0.48 0.37 100 1009.6
20180119143529 34 0 0.0 0.0 0.02 0.48 0.37 100 1009.4
20180119143029 34 0 0.0 0.0 0.02 0.48 0.37 100 1009.4
20180119142529 34 0 0.0 0.0 0.02 0.48 0.37 100 1009.2
20180119142031 34 0 0.0 0.0 0.04 0.48 0.36 100 1004.3
20180119141530 34 0 0.0 0.0 0.04 0.48 0.36 100 1009.1
20180119141029 34 0 0.0 0.0 0.04 0.48 0.36 100 1006.7
20180119140529 34 0 0.0 0.0 0.04 0.48 0.36 100 1007.6
20180119140030 34 0 0.0 0.0 0.04 0.48 0.36 100 1007.3
20180119135529 34 0 0.0 0.0 0.04 0.48 0.36 100 1006.8
20180119135029 34 0 0.0 0.0 0.04 0.44 0.36 100 1007.0
20180119134529 34 0 0.0 0.0 0.04 0.44 0.36 100 1007.2
20180119134029 34 0 0.0 0.0 0.04 0.44 0.36 100 1007.2
20180119133529 34 0 0.0 0.0 0.04 0.44 0.35 100 1005.9
20180119133029 34 0 0.0 0.0 0.04 0.44 0.35 100 1006.8
20180119132529 34 0 0.0 0.0 0.04 0.44 0.34 100 1006.3
20180119132030 34 0 0.0 0.0 0.03 0.44 0.34 100 1009.0
20180119131529 34 0 0.0 0.0 0.03 0.44 0.33 100 1009.0